Location: Bisdorf
(51.9519°N, 11.5513°E)
Time: 07:09:02
(UTC+00:00)

Daily predictions for brighter satellites

Satellite Brightness Start Highest point End
(mag) Time Altitude Azimuth Time Altitude Azimuth Time Altitude Azimuth
Cosmos 1727 Rocket 4.2 19:14:44 10° N 19:21:09 88° W 19:27:31 10° S
SPOT 3 Rocket 3.6 19:17:32 10° SSE 19:22:45 89° E 19:28:00 10° NNW
Cosmos 2251 Rocket 3.5 19:19:31 10° SSW 19:24:46 81° ESE 19:30:07 10° NNE
Cosmos 1656 3.9 19:20:46 10° NNW 19:26:14 74° WSW 19:31:45 10° SSE
Cosmos 1707 Rocket 3.9 19:26:18 10° N 19:30:34 50° ENE 19:34:46 10° SSE
Cosmos 220 Rocket 4.0 19:26:36 10° NNW 19:30:50 89° ENE 19:35:03 10° SSE
Cosmos 1633 3.9 19:28:59 10° SSW 19:32:22 42° WNW 19:35:47 10° N
IRIDIUM 104 4.4 19:27:51 10° S 19:33:01 68° E 19:38:14 10° N
Resurs 01 Rocket 1.6 19:29:25 10° SSE 19:33:49 82° ENE 19:38:17 10° NNW
Landsat 7 4.3 19:30:53 10° SE 19:35:24 45° ENE 19:39:56 10° N
Cosmos 1441 Rocket 3.3 19:35:50 10° S 19:39:33 53° E 19:43:14 10° NNE
Cosmos 2360 4.3 19:35:52 10° NNW 19:41:39 72° NE 19:47:22 10° SE
IRIDIUM 114 4.3 19:36:57 10° S 19:42:10 81° E 19:47:25 10° N
Cosmos 614 Rocket 4.1 19:38:15 10° S 19:43:16 54° ESE 19:48:22 10° NNE
IGS 5A 3.8 19:41:29 10° SE 19:45:29 50° ENE 19:49:31 10° N
Cosmos 1900 4.3 19:41:36 10° SSW 19:46:33 76° SE 19:51:37 10° NE
USA 267 3.5 19:40:33 10° ENE 19:46:53 49° SE 19:53:11 10° SSW
GP-B 3.8 19:44:53 10° NNE 19:49:02 37° E 19:53:08 10° SSE
IRIDIUM 103 4.4 19:46:06 10° S 19:51:19 87° W 19:56:35 10° N
Cosmos 1821 Rocket 4.0 19:47:27 10° S 19:53:34 76° E 19:59:48 10° NNE
Cosmos 921 Rocket 3.9 19:50:46 10° N 19:54:40 33° ENE 19:58:03 12° ESE
CZ-2C R/B 3.9 19:50:17 10° NNE 19:54:58 83° WNW 19:59:32 10° SSW
COSMOS 2406 3.2 19:49:57 10° SSW 19:55:40 73° ESE 20:01:25 10° NNE
Cosmos 1862 Rocket 4.0 19:52:44 10° N 19:57:06 47° ENE 20:01:01 12° SSE
Intercosmos 25 3.8 19:52:09 10° NNW 19:57:06 68° W 20:00:34 10° S
SL-16 R/B 3.5 19:52:12 10° NNW 19:57:12 30° NE 20:02:10 10° ESE
ERS-1 Rocket 3.5 19:56:08 12° SE 20:00:34 44° ENE 20:05:21 10° N
Lacrosse 5 2.4 19:55:53 10° WNW 20:00:54 58° NNE 20:05:56 10° E
Cosmos 2369 3.9 19:56:42 10° NNW 20:02:28 76° WSW 20:08:05 10° SSE
Cosmos 1862 3.9 20:00:51 10° SSW 20:04:51 61° WNW 20:08:55 10° N
Sich 1 3.1 20:01:19 10° S 20:05:45 88° E 20:10:13 10° N
Cosmos 1818 4.2 20:02:00 10° NW 20:07:16 50° WSW 20:12:24 10° SSE
BREEZE-M DEB (TANK) 2.0 20:06:04 10° WSW 20:08:48 45° S 20:09:54 20° ESE
Cosmos 2082 Rocket 2.5 20:05:30 10° S 20:10:51 44° ESE 20:16:13 10° NE
Cosmos 2123 Rocket 4.0 20:05:29 10° N 20:11:43 82° E 20:17:59 10° SSE
Cosmos 2278 3.7 20:06:01 10° NNW 20:11:47 90° S 20:16:44 14° SSE
Spot 2 Rocket 3.6 20:11:26 10° SSE 20:16:33 85° WSW 20:21:42 10° NNW
Cosmos 1535 Rocket 4.5 20:10:37 10° S 20:16:41 67° E 20:22:45 10° NNE
Meteor 1-4 Rocket 2.5 20:16:04 10° NNW 20:19:34 76° W 20:22:26 14° S
Cosmos 2322 Rocket 3.3 20:14:34 10° NNW 20:19:45 34° NE 20:24:25 12° ESE
CZ-2C R/B 4.2 20:17:44 10° N 20:22:29 37° WNW 20:27:13 10° SW
Cosmos 1184 Rocket 3.1 20:21:01 17° SSE 20:23:16 45° E 20:26:28 10° NNE
CARTOSAT-1 3.7 20:20:05 17° SSE 20:23:20 63° ENE 20:27:38 10° N
Cosmos 1190 Rocket 4.0 20:18:22 10° SSW 20:23:36 70° ESE 20:28:54 10° NNE
USA 234 3.4 20:18:46 15° SE 20:24:16 66° SW 20:30:48 10° WNW
Terra 2.4 20:21:08 17° SE 20:24:30 45° ENE 20:29:03 10° N
Cosmos 407 Rocket 3.5 20:21:12 10° SSW 20:26:33 86° ESE 20:31:52 10° NNE
Cosmos 1933 Rocket 4.3 20:24:16 18° SSE 20:26:58 36° E 20:31:01 10° NNE
Cosmos 1605 Rocket 4.1 20:21:08 10° SSE 20:27:02 55° E 20:32:58 10° NNE
Cosmos 1666 Rocket 3.6 20:23:01 10° SSW 20:27:20 83° W 20:31:43 10° N
Okean 1 3.8 20:25:12 10° N 20:29:06 45° ENE 20:31:27 21° SE
Cosmos 1238 Rocket 2.8 20:28:02 25° SE 20:29:11 34° E 20:31:54 10° NNE
Cosmos 1437 Rocket 3.6 20:30:03 10° N 20:33:36 35° ENE 20:35:27 22° ESE
Cosmos 2360 Rocket 3.7 20:28:57 10° NNW 20:33:48 28° NE 20:38:35 10° E
CZ-4B DEB 4.3 20:35:36 22° SSE 20:37:38 86° W 20:41:00 10° NNW
ERBS 3.5 20:35:22 10° W 20:38:34 44° NNW 20:41:46 10° ENE
Meteor 1-19 Rocket 4.3 20:33:16 10° N 20:38:37 58° ENE 20:42:13 21° SE
SPOT 5 2.6 20:35:55 20° SSE 20:38:49 76° ENE 20:43:11 10° NNW
USA 238 DEB 4.0 20:33:25 10° S 20:39:33 41° ESE 20:45:56 10° NE
USA 238 4.0 20:33:33 10° S 20:39:40 41° ESE 20:46:01 10° NE
Cosmos 1980 Rocket 2.5 20:37:16 10° NW 20:42:54 63° WSW 20:47:05 18° S
Iridium 4 Rocket 4.5 20:41:58 19° ESE 20:43:31 23° E 20:46:50 10° NNE
SPOT 1/Viking Rocket 3.9 20:39:53 13° S 20:44:30 62° WSW 20:49:43 10° NNW
Cosmos 1703 Rocket 3.8 20:40:31 10° N 20:44:48 52° ENE 20:47:05 25° SE
Cosmos 2242 Rocket 3.6 20:40:23 10° N 20:44:51 69° ENE 20:47:29 24° SSE
Cosmos 1763 Rocket 3.7 20:42:33 10° NNW 20:47:51 63° ENE 20:51:08 23° SE
Genesis I 3.8 20:45:03 10° NW 20:48:48 46° SW 20:50:44 24° S
SL-4 R/B 2.1 20:45:36 10° SW 20:49:15 41° SSE 20:51:35 18° E
BREEZE-M DEB (TANK) 2.8 20:46:47 10° WSW 20:49:49 66° S 20:58:39 10° E
Cosmos 405 Rocket 2.8 20:49:22 28° SSE 20:51:03 52° E 20:54:42 10° NNE
ATLAS 5 CENTAUR R/B 4.3 20:47:19 10° WNW 20:51:24 20° WSW 20:55:51 10° SSW
Cosmos 1140 Rocket 3.7 20:46:58 10° SSW 20:52:14 77° WNW 20:57:31 10° NNE
Cosmos 2333 Rocket 4.2 20:49:16 10° NNW 20:53:41 22° NNE 20:58:05 10° E
FAST 4.4 20:51:08 10° N 20:54:03 67° ENE 20:54:41 45° SE
USA 32 4.1 20:53:02 11° S 20:58:05 77° W 21:03:21 10° N
Cosmos 1697 Rocket 4.2 20:53:31 10° NW 20:58:16 29° WSW 21:03:00 10° SSW
Cosmos 1633 Rocket 4.0 20:56:26 10° SSW 21:00:44 49° WNW 21:05:03 10° N
Cosmos 1833 Rocket 3.3 20:56:01 10° SW 21:01:33 59° NW 21:07:09 10° NNE
Meteor 1-18 Rocket 4.2 21:00:38 10° NNW 21:06:17 82° W 21:09:50 23° S
Okean 1-7 3.0 21:02:10 10° N 21:06:31 75° ENE 21:08:30 32° SSE
Cosmos 1153 Rocket 4.4 21:03:26 19° S 21:07:52 71° E 21:14:03 10° NNE
Cosmos 1867 3.5 21:02:29 10° SSW 21:07:54 74° SE 21:13:23 10° NE
CENTAUR R/B 3.0 21:04:46 22° S 21:08:05 38° ESE 21:14:29 10° NE
Resurs 01 Rocket 4.2 21:08:33 10° WSW 21:10:56 14° W 21:13:19 10° NW
Okean 3 4.3 21:08:27 10° N 21:12:30 39° ENE 21:13:59 29° ESE
FALCON 9 DEB 3.3 21:11:33 10° SW 21:14:57 49° SSE 21:15:21 46° SE
Meteor 2-4 Rocket 3.7 21:10:14 10° N 21:15:59 72° ENE 21:18:54 29° SSE
Cosmos 1850 Rocket 4.2 21:14:18 27° SSE 21:16:54 50° ESE 21:22:00 10° NNE
Cosmos 1515 3.7 21:13:05 10° NNW 21:16:57 80° W 21:18:23 37° S
SL-27 R/B 3.6 21:19:37 26° E 21:19:37 26° E 21:21:55 10° NE
Cosmos 44 3.5 21:15:44 10° NW 21:20:33 66° NE 21:23:09 28° ESE
ATLAS 5 CENTAUR R/B 1.8 21:18:28 10° NW 21:20:55 70° NE 21:23:25 26° ESE
Cosmos 676 Rocket 4.3 21:15:50 10° SSW 21:21:09 71° WNW 21:26:31 10° NNE
SWARM C 4.5 21:18:36 10° N 21:21:58 83° W 21:22:48 48° S
SWARM A 4.3 21:18:42 10° N 21:22:03 75° W 21:22:58 44° SSW
Meteor 1-25 Rocket 4.5 21:17:53 11° SSW 21:23:15 67° WNW 21:28:52 10° N
Cosmos 1470 Rocket 4.4 21:19:31 12° SSW 21:23:27 50° WNW 21:27:44 10° N
Spot 4 4.4 21:27:26 30° ESE 21:29:23 48° ENE 21:34:02 10° N
USA 267 3.4 21:23:38 10° ENE 21:30:12 79° NNW 21:36:45 10° WSW
Cosmos 921 Rocket 4.3 21:29:09 10° NW 21:32:55 31° WSW 21:34:51 21° SW
NOSS 3-2 (A) 3.3 21:28:10 10° SW 21:33:58 79° SE 21:40:42 10° NE
ERS-1 Rocket 4.3 21:36:08 15° SSW 21:39:31 31° W 21:44:00 10° NNW
Cosmos 841 Rocket 3.4 21:34:37 10° NNW 21:39:53 86° ENE 21:42:00 37° SSE
NOSS 3-2 (C) 3.4 21:35:51 20° SSW 21:39:54 59° SE 21:46:25 10° NE
Cosmos 540 Rocket 3.4 21:36:07 10° NNW 21:41:19 85° ENE 21:43:22 38° SSE
SL-16 R/B 2.3 21:36:09 10° NW 21:41:49 70° WSW 21:44:17 34° S
Lacrosse 5 2.0 21:38:58 10° WNW 21:43:58 58° SW 21:45:31 40° SSE
Cosmos 1570 Rocket 4.0 21:45:49 10° NNW 21:51:08 78° WSW 21:53:10 39° S
Cosmos 1741 Rocket 3.9 21:48:23 27° SSW 21:51:17 86° ESE 21:56:37 10° NNE
Tsikada Rocket 4.2 21:45:45 10° N 21:52:05 61° ENE 21:54:55 33° SE
Cosmos 2219 Rocket 3.4 21:47:42 10° NNW 21:52:58 36° NE 21:56:37 18° ESE
Cosmos 2208 Rocket 3.9 21:47:56 10° NNW 21:53:16 87° WSW 21:55:11 41° SSE
Cosmos 1814 Rocket 3.9 21:48:25 10° NNW 21:53:39 90° SW 21:55:32 41° SSE
Cosmos 2082 Rocket 3.4 21:49:35 10° WSW 21:55:00 43° NW 22:00:25 10° NNE
Cosmos 2237 4.2 21:52:30 10° NNW 21:58:16 85° ENE 22:00:35 38° SE
Cosmos 2084 Rocket 3.9 21:59:01 41° ESE 21:59:01 41° ESE 22:02:37 10° NE
Terra 3.3 22:00:02 19° SW 22:02:25 28° W 22:06:33 10° NW
Cosmos 2322 Rocket 2.5 21:58:32 10° NW 22:04:08 59° WSW 22:06:13 37° S
EO 1 Del DPAF 3.7 22:01:26 10° NNE 22:04:57 43° E 22:04:57 43° E
Cosmos 2100 Rocket 4.1 22:05:35 26° SSW 22:09:15 70° WNW 22:15:24 10° N
Cosmos 1437 Rocket 4.5 22:06:39 10° NW 22:09:41 23° W 22:10:50 20° WSW
Meteor 1-11 Rocket 3.7 22:09:09 40° S 22:11:12 72° E 22:16:57 10° NNE
Cosmos 1242 Rocket 2.6 22:08:25 10° N 22:12:00 63° ENE 22:12:07 62° E
Helios 1A 4.4 22:13:11 25° E 22:14:24 29° ENE 22:18:03 10° N
Cosmos 1869 Rocket 4.2 22:13:01 31° SW 22:14:50 52° WNW 22:19:13 10° N
ERBS 4.0 22:12:17 10° WNW 22:15:20 33° N 22:18:10 11° ENE
Cosmos 2360 Rocket 2.1 22:12:44 10° NNW 22:18:26 78° WSW 22:20:20 44° SSE
COSMOS 2428 3.5 22:13:56 10° NNW 22:19:30 47° NE 22:22:37 24° ESE
ATLAS 3B R/B 2.9 22:21:12 38° SSE 22:23:01 47° ESE 22:29:21 10° NE
Iridium 4 Rocket 3.9 22:21:45 30° SW 22:23:17 42° W 22:27:20 10° N
Cosmos 2173 Rocket 4.4 22:21:11 24° SW 22:24:52 58° WNW 22:30:56 10° N
CRYOSAT 2 4.4 22:20:21 10° N 22:25:15 74° W 22:26:46 44° SSW
Cosmos 1500 4.4 22:25:10 29° WSW 22:26:14 36° WNW 22:29:44 10° N
ALOS 2 2.5 22:27:44 60° SSE 22:28:31 83° ENE 22:32:57 10° NNW
SL-4 R/B 2.7 22:24:56 10° W 22:27:13 35° W 22:27:13 35° W
Cosmos 1725 Rocket 4.0 22:27:19 37° S 22:30:04 88° W 22:36:27 10° N
USA 238 DEB 4.1 22:23:36 10° WSW 22:30:16 64° NW 22:37:16 10° NE
USA 238 4.1 22:23:43 10° WSW 22:30:22 65° NW 22:37:22 10° NE
Nimbus 7 Rocket 4.5 22:24:37 10° NNE 22:30:27 60° ESE 22:32:15 42° SSE
Cosmos 1674 Rocket 3.4 22:28:15 10° N 22:32:36 89° WNW 22:33:13 66° S
SL-08 R/B 4.4 22:32:18 37° SSW 22:34:55 80° W 22:41:04 10° N
Cosmos 1536 2.7 22:34:39 67° SW 22:35:04 77° W 22:39:05 10° N
Cosmos 1666 2.9 22:37:32 54° WSW 22:37:53 57° WNW 22:41:36 10° N
Cosmos 1743 3.2 22:38:17 46° E 22:38:17 46° E 22:41:55 10° NNE
Cosmos 2333 Rocket 2.3 22:33:13 10° NNW 22:39:01 71° NE 22:41:19 37° SE
Cosmos 1271 Rocket 2.7 22:36:57 10° N 22:40:43 67° ENE 22:40:47 67° E
Cosmos 1356 3.8 22:41:30 56° WNW 22:41:30 56° WNW 22:44:51 10° N
Cosmos 2016 Rocket 4.3 22:39:51 30° SSW 22:43:04 63° WNW 22:49:26 10° N
Cosmos 2237 Rocket 3.6 22:37:58 10° NNW 22:43:06 33° NE 22:47:32 13° ESE
MOS 1-B Rocket 4.2 22:38:06 10° N 22:43:46 58° WNW 22:46:44 27° SW
Cosmos 2061 Rocket 4.3 22:41:23 30° SW 22:44:28 61° WNW 22:50:38 10° N
Lacrosse 4 Rocket 2.3 22:45:23 35° E 22:45:23 35° E 22:48:39 10° NE
Cosmos 1733 Rocket 3.3 22:50:59 51° SW 22:51:50 63° WNW 22:56:14 10° N
Meteor 2-11 Rocket 4.5 22:51:22 44° SSE 22:53:19 68° E 22:59:23 10° NNE
SL-27 R/B 4.3 22:53:08 21° W 22:54:06 25° NW 22:56:55 10° N
Thor Agena Rocket 3.9 22:50:02 10° N 22:55:02 60° WNW 22:57:00 35° SW
Cosmos 44 Rocket 3.6 22:50:32 10° NW 22:55:29 66° NE 22:57:31 35° ESE
Cosmos 836 Rocket 4.4 22:51:35 10° NNW 22:56:50 85° WSW 22:58:03 54° SSE
CENTAUR R/B 3.0 22:52:09 10° WSW 22:58:23 66° NW 23:05:51 10° NE
Cosmos 968 Rocket 3.6 22:59:01 49° SE 22:59:44 53° ESE 23:04:44 10° NNE
Cosmos 1975 3.5 23:02:23 42° E 23:02:23 42° E 23:06:11 10° NNE
SL-24 DEB 4.2 22:59:39 10° N 23:04:28 77° E 23:05:18 59° SSE
Cosmos 1782 Rocket 3.9 23:10:37 48° ESE 23:10:56 49° E 23:15:09 10° NNE
Cosmos 1378 3.9 23:09:06 10° NNW 23:12:29 42° W 23:12:29 42° W
USA 267 3.8 23:06:34 10° ENE 23:12:58 58° N 23:19:21 10° WNW
Cosmos 1707 4.0 23:12:01 10° N 23:15:37 33° ENE 23:16:13 31° E
Cosmos 2233 Rocket 4.2 23:14:30 36° SW 23:17:09 64° WNW 23:23:28 10° N
Cosmos 1842 3.1 23:13:39 10° N 23:17:38 84° ENE 23:17:41 84° ESE
Cosmos 1464 Rocket 4.2 23:15:36 40° SSE 23:17:42 59° E 23:23:46 10° NNE
Cosmos 1908 Rocket 3.4 23:18:33 68° SSW 23:19:03 82° W 23:23:27 10° N
Cosmos 2344 4.4 23:10:53 10° NW 23:19:46 74° NE 23:32:05 10° SE
Helios 1B rocket 3.7 23:18:04 10° NE 23:21:41 29° E 23:21:48 29° E
Meteor 1-21 4.2 23:17:38 10° NNW 23:23:30 83° E 23:25:22 46° SSE
Cosmos 2227 Rocket 4.1 23:22:42 15° ESE 23:24:00 16° E 23:27:21 10° ENE
SL-16 R/B 4.3 23:22:22 10° WNW 23:24:53 13° W 23:26:08 12° WSW
Lacrosse 5 4.0 23:23:19 10° W 23:24:41 13° WSW 23:24:41 13° WSW
Cosmos 2322 4.1 23:23:11 10° NW 23:28:33 45° WSW 23:29:31 41° SW
NOSS 3-2 (C) 4.4 23:25:12 10° WSW 23:31:03 48° NNW 23:37:51 10° NE
Cosmos 1833 4.4 23:28:44 35° SW 23:31:09 67° NW 23:36:49 10° NNE
COSMOS 2487 3.3 23:32:14 42° WNW 23:32:15 42° WNW 23:35:34 10° NNE
Nadezhda 4 Rocket 4.1 23:29:12 10° N 23:35:33 73° ENE 23:38:03 38° SSE
Cosmos 2219 Rocket 2.4 23:31:38 10° NW 23:37:11 54° WSW 23:38:19 46° SSW
Cosmos 783 Rocket 4.4 23:35:53 10° NNW 23:41:09 77° WSW 23:42:23 53° S
Cosmos 1975 Rocket 3.1 23:37:27 10° NNW 23:41:56 67° W 23:42:25 61° SW
Cosmos 1513 Rocket 4.5 23:42:38 43° S 23:44:58 90° W 23:51:28 10° N
Cosmos 1437 3.9 23:42:10 10° N 23:44:31 37° NE 23:44:31 37° NE
Okean 2 Rocket 3.6 23:45:22 43° ESE 23:46:05 47° E 23:50:24 10° NNE
Cosmos 2034 Rocket 4.1 23:43:53 41° SSE 23:46:09 69° E 23:52:27 10° NNE
Cosmos 2322 Rocket 4.4 23:45:52 10° W 23:46:59 11° W 23:48:01 10° WSW
Cosmos 1503 Rocket 4.0 23:45:55 51° SSW 23:47:20 85° ESE 23:52:45 10° NNE
Cosmos 1072 Rocket 4.4 23:46:51 43° SSW 23:48:59 81° W 23:55:08 10° N
Landsat 4 3.6 23:45:21 10° NNE 23:49:10 85° ESE 23:49:12 85° ESE
Cosmos 1092 Rocket 4.3 23:43:31 10° N 23:49:45 61° ENE 23:52:45 31° SE
Helios 1A 3.8 23:49:48 37° W 23:49:51 37° W 23:53:48 10° NNW
SL-16 R/B 3.5 23:46:15 15° SE 23:51:02 44° ENE 23:56:55 10° N
ERBS 3.2 23:48:40 10° WNW 23:51:02 42° NW 23:51:02 42° NW
CZ-2D R/B 3.9 23:48:10 10° NE 23:52:28 23° E 23:54:54 17° SE
Cosmos 1300 Rocket 3.9 23:52:28 46° ESE 23:53:04 50° E 23:57:15 10° NNE
SL-16 R/B 3.4 23:47:58 10° NNW 23:53:20 40° NE 23:58:41 10° ESE
Cosmos 1486 Rocket 4.4 23:52:11 35° WSW 23:54:07 55° WNW 23:59:15 10° NNE
Cosmos 1544 3.9 23:54:38 41° WNW 23:54:41 41° WNW 23:58:11 10° N
